| time (UTC) | temp F | wind direction | speed MPH | gust MPH | rain 1hr in | rain 24hr in | rain mn in | humidity % | barometer mb |
| 20260510220057 | 62 | 208 | 0.0 | 0.0 | 0.00 | 0.00 | 0.00 | 74 | 1004.8 |
| 20260510214554 | 63 | 208 | 0.0 | 0.0 | 0.00 | 0.00 | 0.00 | 73 | 1005.0 |
| 20260510213054 | 63 | 208 | 0.0 | 12.0 | 0.00 | 0.00 | 0.00 | 72 | 1005.1 |
| 20260510211552 | 64 | 203 | 4.0 | 17.0 | 0.00 | 0.00 | 0.00 | 72 | 1005.4 |
| 20260510210106 | 64 | 207 | 0.0 | 16.0 | 0.00 | 0.00 | 0.00 | 71 | 1005.5 |
| 20260510204549 | 64 | 217 | 3.0 | 18.0 | 0.00 | 0.00 | 0.00 | 71 | 1005.7 |
| 20260510203047 | 63 | 214 | 8.0 | 18.0 | 0.00 | 0.00 | 0.00 | 72 | 1005.8 |
| 20260510201546 | 64 | 196 | 3.0 | 14.0 | 0.00 | 0.00 | 0.00 | 71 | 1005.8 |
| 20260510200045 | 64 | 194 | 0.0 | 11.0 | 0.00 | 0.00 | 0.00 | 69 | 1006.0 |
| 20260510194543 | 64 | 194 | 0.0 | 10.0 | 0.00 | 0.00 | 0.00 | 68 | 1006.2 |
| 20260510193058 | 65 | 194 | 0.0 | 12.0 | 0.00 | 0.00 | 0.00 | 66 | 1006.3 |
| 20260510191542 | 65 | 195 | 1.0 | 13.0 | 0.00 | 0.00 | 0.00 | 65 | 1006.4 |
| 20260510190039 | 66 | 193 | 7.0 | 18.0 | 0.00 | 0.00 | 0.00 | 63 | 1006.4 |
| 20260510184539 | 67 | 188 | 1.0 | 20.0 | 0.00 | 0.00 | 0.00 | 62 | 1006.4 |
| 20260510183046 | 68 | 204 | 0.0 | 11.0 | 0.00 | 0.00 | 0.00 | 62 | 1006.5 |
| 20260510181540 | 68 | 204 | 9.0 | 20.0 | 0.00 | 0.00 | 0.00 | 60 | 1006.4 |
| 20260510180049 | 69 | 201 | 8.0 | 19.0 | 0.00 | 0.00 | 0.00 | 58 | 1006.5 |
| 20260510174536 | 70 | 196 | 7.0 | 20.0 | 0.00 | 0.00 | 0.00 | 56 | 1006.5 |
| 20260510173034 | 71 | 209 | 13.0 | 28.0 | 0.00 | 0.00 | 0.00 | 55 | 1006.6 |
| 20260510171534 | 71 | 205 | 8.0 | 26.0 | 0.00 | 0.00 | 0.00 | 54 | 1006.7 |
| 20260510170035 | 72 | 206 | 12.0 | 26.0 | 0.00 | 0.00 | 0.00 | 54 | 1006.8 |
| 20260510164545 | 72 | 217 | 7.0 | 24.0 | 0.00 | 0.00 | 0.00 | 53 | 1007.0 |
| 20260510163028 | 71 | 220 | 9.0 | 23.0 | 0.00 | 0.00 | 0.00 | 53 | 1007.2 |
| 20260510161525 | 71 | 240 | 14.0 | 31.0 | 0.00 | 0.00 | 0.00 | 52 | 1007.4 |
| 20260510160027 | 72 | 198 | 14.0 | 25.0 | 0.00 | 0.00 | 0.00 | 55 | 1007.6 |
| 20260510154522 | 71 | 235 | 6.0 | 27.0 | 0.00 | 0.00 | 0.00 | 55 | 1007.8 |
| 20260510153027 | 72 | 194 | 14.0 | 28.0 | 0.00 | 0.00 | 0.00 | 53 | 1008.0 |
| 20260510151519 | 72 | 230 | 16.0 | 33.0 | 0.00 | 0.00 | 0.00 | 53 | 1008.2 |
| 20260510150018 | 72 | 206 | 8.0 | 28.0 | 0.00 | 0.00 | 0.00 | 54 | 1008.2 |
| 20260510144522 | 72 | 213 | 11.0 | 24.0 | 0.00 | 0.00 | 0.00 | 54 | 1008.3 |
| 20260510143017 | 73 | 216 | 15.0 | 34.0 | 0.00 | 0.00 | 0.00 | 54 | 1008.5 |
| 20260510141514 | 72 | 184 | 16.0 | 33.0 | 0.00 | 0.00 | 0.00 | 54 | 1008.7 |
| 20260510140011 | 72 | 203 | 13.0 | 28.0 | 0.00 | 0.00 | 0.00 | 53 | 1008.9 |
| 20260510134509 | 72 | 202 | 12.0 | 34.0 | 0.00 | 0.00 | 0.00 | 52 | 1009.0 |
| 20260510133007 | 73 | 188 | 17.0 | 34.0 | 0.00 | 0.00 | 0.00 | 52 | 1009.2 |
| 20260510131505 | 73 | 208 | 12.0 | 32.0 | 0.00 | 0.00 | 0.00 | 53 | 1009.4 |
| 20260510130004 | 73 | 171 | 11.0 | 28.0 | 0.00 | 0.00 | 0.00 | 53 | 1009.7 |
| 20260510124613 | 72 | 235 | 8.0 | 28.0 | 0.00 | 0.00 | 0.00 | 54 | 1009.8 |
| 20260510123104 | 72 | 206 | 6.0 | 33.0 | 0.00 | 0.00 | 0.00 | 53 | 1010.1 |
| 20260510121556 | 72 | 215 | 11.0 | 33.0 | 0.00 | 0.00 | 0.00 | 53 | 1010.3 |
| 20260510120054 | 72 | 186 | 15.0 | 29.0 | 0.00 | 0.00 | 0.00 | 54 | 1010.6 |
| 20260510114551 | 71 | 190 | 12.0 | 31.0 | 0.00 | 0.00 | 0.00 | 55 | 1010.7 |
| 20260510113059 | 71 | 190 | 8.0 | 28.0 | 0.00 | 0.00 | 0.00 | 55 | 1011.0 |
| 20260510111603 | 70 | 205 | 14.0 | 32.0 | 0.00 | 0.00 | 0.00 | 55 | 1011.2 |
| 20260510110047 | 70 | 194 | 10.0 | 33.0 | 0.00 | 0.00 | 0.00 | 57 | 1011.5 |
| 20260510104553 | 69 | 196 | 10.0 | 27.0 | 0.00 | 0.00 | 0.00 | 57 | 1011.8 |
| 20260510103038 | 68 | 193 | 11.0 | 30.0 | 0.00 | 0.00 | 0.00 | 57 | 1012.1 |
| 20260510101533 | 67 | 203 | 14.0 | 27.0 | 0.00 | 0.00 | 0.00 | 57 | 1012.3 |
| 20260510100030 | 67 | 208 | 16.0 | 32.0 | 0.00 | 0.00 | 0.00 | 56 | 1012.5 |
| 20260510094530 | 67 | 186 | 15.0 | 30.0 | 0.00 | 0.00 | 0.00 | 54 | 1012.7 |
| 20260510093023 | 67 | 165 | 7.0 | 31.0 | 0.00 | 0.00 | 0.00 | 54 | 1012.8 |
| 20260510091540 | 65 | 173 | 11.0 | 24.0 | 0.00 | 0.00 | 0.00 | 56 | 1013.2 |
| 20260510090015 | 65 | 138 | 10.0 | 24.0 | 0.00 | 0.00 | 0.00 | 56 | 1013.4 |
| 20260510084512 | 65 | 165 | 12.0 | 23.0 | 0.00 | 0.00 | 0.00 | 56 | 1013.6 |
| 20260510083008 | 63 | 134 | 5.0 | 19.0 | 0.00 | 0.00 | 0.00 | 58 | 1013.7 |
| 20260510081513 | 62 | 156 | 1.0 | 16.0 | 0.00 | 0.00 | 0.00 | 60 | 1014.0 |
| 20260510080103 | 61 | 193 | 5.0 | 17.0 | 0.00 | 0.00 | 0.00 | 61 | 1014.1 |
| 20260510074557 | 60 | 146 | 4.0 | 15.0 | 0.00 | 0.00 | 0.00 | 62 | 1014.3 |
| 20260510073052 | 59 | 133 | 1.0 | 11.0 | 0.00 | 0.00 | 0.00 | 64 | 1014.4 |
| 20260510071548 | 58 | 131 | 3.0 | 8.0 | 0.00 | 0.00 | 0.00 | 65 | 1014.6 |
| 20260510070048 | 57 | 130 | 4.0 | 15.0 | 0.00 | 0.00 | 0.00 | 66 | 1014.7 |
| 20260510064557 | 56 | 92 | 0.0 | 0.0 | 0.00 | 0.00 | 0.00 | 68 | 1015.1 |
| 20260510063043 | 56 | 92 | 0.0 | 0.0 | 0.00 | 0.00 | 0.00 | 69 | 1015.3 |
| 20260510061543 | 55 | 92 | 0.0 | 0.0 | 0.00 | 0.00 | 0.00 | 71 | 1015.2 |
| 20260510060035 | 54 | 92 | 0.0 | 0.0 | 0.00 | 0.00 | 0.00 | 74 | 1015.3 |
| 20260510054522 | 53 | 92 | 0.0 | 0.0 | 0.00 | 0.00 | 0.00 | 76 | 1015.3 |
| 20260510053018 | 52 | 92 | 0.0 | 0.0 | 0.00 | 0.00 | 0.00 | 78 | 1015.4 |
| 20260510051514 | 50 | 92 | 0.0 | 0.0 | 0.00 | 0.00 | 0.00 | 81 | 1015.4 |
| 20260510050009 | 49 | 92 | 0.0 | 0.0 | 0.00 | 0.00 | 0.00 | 82 | 1015.4 |
| 20260510044508 | 48 | 92 | 0.0 | 0.0 | 0.00 | 0.00 | 0.00 | 83 | 1015.5 |
| 20260510043002 | 48 | 92 | 0.0 | 0.0 | 0.00 | 0.00 | 0.00 | 84 | 1015.5 |
| 20260510041607 | 47 | 92 | 0.0 | 0.0 | 0.00 | 0.00 | 0.00 | 83 | 1015.7 |
| 20260510040055 | 47 | 92 | 0.0 | 0.0 | 0.00 | 0.00 | 0.00 | 83 | 1015.7 |
| 20260510034558 | 47 | 92 | 0.0 | 0.0 | 0.00 | 0.00 | 0.00 | 82 | 1015.7 |
| 20260510033050 | 48 | 92 | 0.0 | 0.0 | 0.00 | 0.00 | 0.00 | 82 | 1015.7 |
| 20260510031556 | 48 | 92 | 0.0 | 0.0 | 0.00 | 0.00 | 0.00 | 81 | 1015.6 |
| 20260510030055 | 48 | 92 | 0.0 | 0.0 | 0.00 | 0.00 | 0.00 | 81 | 1015.5 |
| 20260510024551 | 48 | 92 | 0.0 | 0.0 | 0.00 | 0.00 | 0.00 | 80 | 1015.6 |
| 20260510023044 | 48 | 92 | 0.0 | 0.0 | 0.00 | 0.00 | 0.00 | 80 | 1015.6 |
| 20260510021542 | 49 | 92 | 0.0 | 0.0 | 0.00 | 0.00 | 0.00 | 79 | 1015.8 |
| 20260510020039 | 49 | 92 | 0.0 | 0.0 | 0.00 | 0.00 | 0.00 | 78 | 1016.1 |
| 20260510014540 | 49 | 92 | 0.0 | 0.0 | 0.00 | 0.00 | 0.00 | 77 | 1015.9 |
| 20260510013042 | 49 | 92 | 0.0 | 0.0 | 0.00 | 0.00 | 0.00 | 77 | 1015.8 |
| 20260510011536 | 50 | 92 | 0.0 | 4.0 | 0.00 | 0.00 | 0.00 | 75 | 1015.8 |
| 20260510010032 | 51 | 92 | 0.0 | 0.0 | 0.00 | 0.00 | 0.00 | 75 | 1015.8 |
| 20260510004531 | 52 | 92 | 0.0 | 0.0 | 0.00 | 0.00 | 0.00 | 74 | 1015.8 |
| 20260510003043 | 52 | 92 | 0.0 | 0.0 | 0.00 | 0.00 | 0.00 | 71 | 1015.9 |
| 20260510001526 | 52 | 92 | 0.0 | 0.0 | 0.00 | 0.00 | 0.00 | 70 | 1015.9 |
| 20260510000026 | 53 | 92 | 0.0 | 0.0 | 0.00 | 0.00 | 0.00 | 70 | 1016.0 |
| 20260509234534 | 53 | 92 | 0.0 | 0.0 | 0.00 | 0.00 | 0.00 | 69 | 1016.3 |
| 20260509233033 | 53 | 92 | 1.0 | 8.0 | 0.00 | 0.00 | 0.00 | 69 | 1016.6 |
| 20260509231516 | 53 | 92 | 0.0 | 0.0 | 0.00 | 0.00 | 0.00 | 68 | 1016.8 |
| 20260509230015 | 54 | 92 | 0.0 | 0.0 | 0.00 | 0.00 | 0.00 | 68 | 1017.0 |
| 20260509224515 | 54 | 92 | 0.0 | 0.0 | 0.00 | 0.00 | 0.00 | 68 | 1017.2 |
| 20260509223011 | 54 | 92 | 0.0 | 0.0 | 0.00 | 0.00 | 0.00 | 67 | 1017.3 |
| 20260509221510 | 54 | 92 | 0.0 | 0.0 | 0.00 | 0.00 | 0.00 | 67 | 1017.2 |